#timestamp,LO_Frequency,Hit,StdDev 
1506805215.6,286047011.6,Y
1506805235.4,286047008.9,P
1506805255.2,286047006.6,N
1506805275.1,286047009.9,N
1506805276.0,286047009.9,N
1506805295.8,286047005.3,N
1506805315.6,286047003.1,N
1506805335.4,286047003.9,N
1506805355.3,286047000.1,N
1506805375.1,286046997.6,N
1506805395.8,286046992.1,N
1506805415.7,286046988.6,N
1506805435.5,286046989.2,N
1506805455.3,286046991.3,N
1506805475.2,286046986.9,N
1506805495.9,286046989.5,N
1506805515.7,286046986.9,N
1506805535.6,286046989.9,N
1506805555.4,286046989.8,N
1506805575.2,286046988.3,N
1506805595.1,286046986.2,N
1506805596.0,286046986.2,N
1506805615.8,286046984.6,N
1506805635.6,286046982.7,N
1506805655.5,286046980.8,N
1506805675.3,286046982.9,N
1506805695.1,286046980.8,N
1506805715.8,286046981.8,N
1506805735.7,286046983.0,N
1506805755.5,286046983.3,N
1506805775.3,286046979.3,N
1506805795.2,286046978.1,N
1506805815.9,286046976.6,N
1506805835.7,286046971.0,Y
1506805855.6,286046983.4,P
1506805875.4,286046984.1,P
1506805895.2,286046985.3,P
1506805915.1,286046984.3,Y
1506805916.0,286046984.3,P
1506805935.8,286047000.8,N
1506805955.6,286047000.2,N
1506805975.5,286046999.9,N
1506805995.3,286046998.3,N
1506806015.1,286046997.2,N
1506806035.9,286046996.2,N
1506806055.7,286046996.2,N
1506806075.5,286046997.4,N
1506806095.4,286046999.3,N
1506806115.2,286047000.3,N
1506806135.0,286047000.0,N
1506806135.9,286047000.0,N
1506806155.8,286046996.5,N
1506806175.6,286046995.0,N
1506806195.4,286046995.9,N
1506806215.2,286046994.2,N
1506806235.1,286046995.1,N
1506806236.0,286046995.1,N
1506806255.8,286046995.0,N
1506806275.6,286046995.3,N
1506806295.5,286046994.2,N
1506806315.3,286046994.7,N
1506806335.1,286046994.4,N
1506806355.9,286046991.7,N
1506806375.7,286046993.9,N
1506806395.5,286046998.0,N
1506806415.4,286046996.9,N
1506806435.2,286046995.7,N
1506806455.0,286046994.1,N
1506806455.9,286046994.1,N
1506806475.8,286046996.9,N
1506806495.6,286047000.5,N
1506806515.4,286047003.8,N
1506806535.2,286047006.6,N
1506806555.1,286047008.0,N
1506806556.0,286047008.0,N
1506806575.8,286047014.8,Y
1506806595.7,286047018.2,P
1506806615.5,286047017.8,N
1506806635.3,286047023.6,N
1506806655.1,286047019.2,N
1506806675.9,286047023.8,N
1506806695.7,286047026.5,N
1506806715.6,286047028.4,Y
1506806735.4,286047010.3,P
1506806755.2,286047008.4,N
1506806775.0,286047010.1,N
1506806775.9,286047010.1,N
1506806795.8,286047009.6,N
1506806815.6,286047012.7,Y
1506806835.5,286047001.8,P
1506806855.3,286047006.7,N
1506806875.1,286047007.7,N
1506806895.8,286047010.0,N
1506806915.7,286047009.5,N
1506806935.5,286047009.3,Y
1506806955.3,286047007.2,P
1506806975.2,286047005.3,P
1506806995.0,286047000.8,N
1506806995.9,286047000.8,N
1506807015.7,286046996.9,N
1506807035.6,286046998.8,N
1506807055.4,286046995.8,N
1506807075.2,286046994.4,N
1506807095.1,286046996.1,N
1506807096.0,286046996.1,N
1506807115.8,286046994.5,N
1506807135.6,286046995.4,N
1506807155.5,286046994.6,N
1506807175.3,286046993.4,N
1506807195.1,286046992.2,N
1506807215.9,286046995.6,N
1506807235.7,286046998.1,N
1506807255.5,286046997.4,N
1506807275.3,286046995.2,N
1506807295.2,286046991.3,N
1506807315.0,286046989.5,N
1506807315.9,286046989.5,N
1506807335.7,286046989.7,N
1506807355.6,286046988.2,N
1506807375.4,286046988.3,N
1506807395.2,286046988.1,N
1506807415.1,286046986.6,N
1506807416.0,286046986.6,N
1506807435.8,286046985.6,N
1506807455.6,286046985.9,N
1506807475.5,286046984.0,N
1506807495.3,286046982.7,Y
1506807515.1,286046990.5,P
1506807535.9,286046989.4,P
1506807555.7,286046988.3,P
1506807575.5,286046987.2,Y
1506807595.4,286046996.1,P
1506807615.2,286046994.3,N
1506807635.0,286046990.8,P
1506807635.9,286046990.8,Y
1506807655.8,286046997.2,P
1506807675.6,286046995.9,N
1506807695.4,286046996.2,N
1506807715.3,286046995.3,N
1506807735.1,286046996.2,N
1506807736.0,286046996.2,N
1506807755.8,286046994.3,Y
1506807775.7,286046995.8,P
1506807795.5,286046996.4,P
1506807815.3,286046996.0,P
1506807835.2,286046996.7,Y
1506807855.9,286047001.8,P
1506807875.7,286047003.0,N
1506807895.6,286047004.2,N
1506807915.4,286047002.6,N
1506807935.2,286047000.3,N
1506807955.1,286046998.8,N
1506807956.0,286046998.8,N
1506807975.8,286046997.3,N
1506807995.6,286046994.0,N
1506808015.5,286046993.6,N
1506808035.3,286046990.1,N
1506808055.1,286046992.8,N
1506808075.8,286046991.4,N
1506808095.7,286046990.2,N
1506808115.5,286046993.1,N
1506808135.3,286046994.3,N
1506808155.2,286046993.4,N
1506808175.9,286046996.2,N
1506808195.7,286046994.3,N
1506808215.6,286046990.9,N
1506808235.4,286046988.5,N
1506808255.2,286046994.3,N
1506808275.1,286046993.8,N
1506808276.0,286046993.8,N
1506808295.8,286046997.9,N
1506808315.6,286046997.7,N
1506808335.5,286046994.0,N
1506808355.3,286046993.0,N
1506808375.1,286046991.9,N
1506808395.8,286046993.7,N
1506808415.7,286046995.4,N
1506808435.5,286046995.8,N
1506808455.3,286046999.8,N
1506808475.2,286047006.0,N
1506808495.9,286047010.7,Y
1506808515.7,286047018.5,P
1506808535.6,286047021.2,N
1506808555.4,286047023.6,N
1506808575.2,286047022.2,N
1506808595.1,286047025.3,N
1506808596.0,286047025.3,N
1506808615.8,286047025.5,N
1506808635.6,286047031.6,Y
1506808655.5,286047009.7,P
1506808675.3,286047011.7,N
1506808695.1,286047015.1,P
1506808715.9,286047017.6,Y
1506808735.7,286047002.0,P
1506808755.5,286046998.1,N
1506808775.4,286046998.2,N
1506808795.2,286047000.4,N
